Location: Waldport
(44.4270°N, 124.0680°W)
Time: 03:25:22
(UTC-07:00)

Daily predictions for brighter satellites

Satellite Brightness Start Highest point End
(mag) Time Altitude Azimuth Time Altitude Azimuth Time Altitude Azimuth
Cosmos 2219 Rocket 4.5 02:48:12 10° N 02:50:56 20° NNE 02:50:56 20° NNE
SL-16 R/B 3.9 03:05:54 35° NNE 03:05:54 35° NNE 03:10:09 10° N
ATLAS 2AS CENTAUR R/B 3.5 03:08:41 55° NNE 03:08:41 55° NNE 03:14:50 10° NE
Cosmos 2344 4.4 03:16:59 40° ESE 03:16:59 40° ESE 03:24:38 10° NE
Resurs 1-4 Rocket 4.1 03:12:28 10° NE 03:15:12 24° ENE 03:15:12 24° ENE
Lacrosse 5 rocket 4.4 03:29:15 16° NE 03:29:15 16° NE 03:30:08 10° NE
Cosmos 2333 Rocket 3.6 03:28:46 10° N 03:33:58 34° NE 03:39:06 10° ESE
Okean O Rocket 4.5 03:35:56 10° ENE 03:37:33 12° E 03:37:51 12° E
CZ-3A R/B 4.0 03:52:57 33° NNE 03:53:04 33° NNE 03:57:55 10° E
Lacrosse 5 3.7 03:57:13 24° ESE 03:57:13 24° ESE 04:00:16 10° ENE
Cosmos 2237 Rocket 3.3 03:53:24 10° NNW 03:58:45 42° ENE 04:04:04 10° SE
ATLAS 5 CENTAUR R/B 3.0 04:00:54 27° NNW 04:04:01 52° NE 04:10:15 10° ESE
NOSS 3-2 (C) 4.2 04:04:32 10° NW 04:11:57 69° NE 04:19:57 10° SE
ARIANE 5 R/B 3.6 04:07:26 10° N 04:10:30 37° N 04:10:30 37° N
Cosmos 1980 4.2 04:07:02 10° NNW 04:12:39 57° ENE 04:18:14 10° SE
Cosmos 2219 3.8 04:16:21 47° N 04:16:21 47° N 04:20:31 10° NNE
SL-16 R/B 4.0 04:13:18 10° N 04:18:14 29° NE 04:23:08 10° ESE
RESURS DK-1 4.4 04:21:58 23° ESE 04:21:58 23° ESE 04:25:15 10° NE
BREEZE-M DEB (TANK) 3.6 04:22:10 67° NW 04:22:59 85° NNE 04:35:46 10° ESE
Gbstr 26 Del rocket 4.3 04:28:27 61° SSW 04:28:27 61° SSW 04:35:51 10° SE
Cosmos 1680 Rocket 4.0 04:23:16 10° NNW 04:28:31 58° ENE 04:33:41 10° SE
Meteor 1-18 Rocket 4.5 04:32:14 58° NW 04:32:14 58° NW 04:37:11 10° N
CZ-2D R/B 2.6 04:26:29 10° N 04:30:29 49° NNW 04:30:29 49° NNW
Cosmos 2227 Rocket 2.7 04:31:28 46° SSE 04:32:40 55° ESE 04:38:12 10° NNE
SL-24 R/B 4.5 04:34:22 74° NNE 04:34:22 74° NNE 04:38:51 10° N
Cosmos 1727 Rocket 4.4 04:30:49 30° SSE 04:33:59 63° E 04:40:13 10° NNE
BREEZE M DEB (TANK) 3.3 04:36:40 46° ENE 04:36:40 46° ENE 04:41:15 10° ENE
Cosmos 2219 Rocket 4.2 04:31:29 10° NNW 04:44:31 - SSE 04:32:30 16° NNW
NOSS 3-4 (A) 3.7 04:35:45 53° S 04:37:11 68° ESE 04:43:41 10° NE
NOSS 3-4 (C) 3.7 04:35:49 52° S 04:37:17 67° ESE 04:43:47 10° NE
ARGOS Delta rocket 4.5 04:33:40 10° N 04:37:17 48° NNW 04:37:17 48° NNW
Cosmos 2297 Rocket 3.0 04:39:41 30° SSE 04:42:04 47° ESE 04:47:28 10° NE
PSLV R/B 4.5 04:38:24 10° NNE 04:42:16 56° E 04:42:16 56° E
BREEZE-M DEB (TANK) 4.4 04:42:37 41° N 04:42:50 42° NNE 04:49:26 10° E
SL-16 R/B 3.8 04:51:01 24° NW 04:51:01 24° NW 04:53:44 10° NNW
IRS-1C Rocket 4.2 04:49:57 10° NNE 04:55:15 75° ESE 04:57:35 34° S
Cosmos 968 Rocket 4.4 04:57:44 33° NW 04:57:44 33° NW 05:01:38 10° N
Resurs 1-4 Rocket 2.8 04:52:06 10° N 04:56:17 37° NW 04:56:17 37° NW
NOSS 0 Rocket 3.9 04:51:09 10° NW 04:57:14 57° WSW 05:03:18 10° S
MOS 1-B 4.3 04:52:00 10° N 04:57:42 63° WNW 04:58:42 54° WSW
ATLAS 2AS CENTAUR R/B 4.2 04:56:08 24° WNW 04:59:00 29° NNW 05:05:55 10° NNE
Cosmos 1153 Rocket 4.4 04:54:45 10° N 05:01:07 88° W 05:07:31 10° S
Cosmos 1934 Rocket 4.3 04:55:46 10° NNW 05:01:12 42° WNW 05:01:12 42° WNW
Thor Agena Rocket 4.1 04:56:35 10° SSE 05:01:47 60° ENE 05:07:00 10° N
CZ-4B R/B 3.4 04:59:19 10° NNE 05:03:41 67° ESE 05:05:46 31° S
Cosmos 1605 Rocket 3.9 04:58:59 10° NNW 05:04:59 58° W 05:08:06 29° SSW
Lacrosse 5 rocket 2.9 05:04:59 27° NNW 05:05:17 27° NNW 05:09:09 10° NE
Cosmos 1025 Rocket 3.0 05:04:58 48° S 05:06:08 81° E 05:10:28 10° N
PAYLOAD B 4.2 05:04:04 10° NNE 05:09:37 83° ESE 05:13:34 20° SSW
Cosmos 923 Rocket 4.5 05:07:31 10° NNW 05:16:56 14° S 05:17:41 10° S
Cosmos 2082 3.6 05:10:41 40° SW 05:12:48 80° WNW 05:18:27 10° NNE
Cosmos 1339 Rocket 4.4 05:08:54 19° SSW 05:13:38 79° W 05:20:05 10° N
Okean O Rocket 1.5 05:10:02 10° N 05:14:26 70° WNW 05:15:19 53° SW
Cosmos 2333 Rocket 2.5 05:13:00 10° NW 05:18:18 40° WSW 05:23:32 10° S
Okean 2 3.8 05:15:42 13° S 05:19:15 62° E 05:23:22 10° NNE
Cosmos 1606 Rocket 3.4 05:14:58 10° N 05:19:23 81° W 05:23:43 10° S
NOSS 3-2 (A) 4.2 05:17:42 10° NW 05:24:44 44° WSW 05:32:14 10° S
Tiangong 1 1.4 05:27:24 52° SSE 05:27:24 52° SSE 05:30:14 10° E
Cosmos 1666 2.5 05:25:00 10° NNW 05:28:53 78° W 05:32:43 10° S
Cosmos 1726 Rocket 3.4 05:25:58 10° NNW 05:30:23 73° W 05:34:43 10° S
EXPRESS MD2 3.3 05:29:47 41° NW 05:30:49 75° NNE 05:36:13 10° ESE
Cosmos 2344 4.1 05:27:00 28° W 05:31:07 50° NW 05:40:08 10° NE
Meteor 1-19 Rocket 4.2 05:29:50 22° SSW 05:33:30 58° WNW 05:39:02 10° N
CZ-2C R/B 4.1 05:33:55 26° SW 05:35:50 38° W 05:40:11 10° NNW
Cosmos 1898 Rocket 3.8 05:30:59 10° S 05:36:15 70° ESE 05:41:32 10° NNE
Lacrosse 5 2.0 05:36:26 32° WSW 05:38:43 62° NW 05:43:46 10° NE
CZ-4B R/B 3.2 05:34:34 10° N 05:39:52 59° WNW 05:44:34 14° SSW
Cosmos 2061 Rocket 3.9 05:33:51 10° N 05:40:10 79° W 05:46:31 10° S
Cosmos 220 Rocket 4.4 05:40:31 33° WSW 05:41:41 41° WNW 05:45:42 10° N
Cosmos 2237 Rocket 2.8 05:37:45 10° NW 05:42:39 31° WSW 05:47:31 10° SSW
Cosmos 2100 Rocket 3.9 05:36:58 10° NNW 05:43:08 67° W 05:49:22 10° S
Cosmos 1892 Rocket 3.5 05:39:12 12° SSW 05:43:23 67° W 05:47:52 10° N
Cosmos 1802 Rocket 3.9 05:37:16 10° N 05:43:29 83° W 05:49:36 10° S
Cosmos 292 Rocket 3.8 05:38:53 10° NNW 05:43:39 55° WSW 05:48:22 10° S
Meteor 2-4 Rocket 3.8 05:42:30 10° SSW 05:48:15 60° WNW 05:54:09 10° N
PSLV R/B 3.4 05:44:08 10° N 05:48:29 75° WNW 05:52:45 10° SSW
ATLAS 5 CENTAUR R/B 3.0 05:43:13 10° NW 05:48:40 35° WSW 05:54:25 10° S
Cosmos 1937 Rocket 3.9 05:44:57 10° S 05:50:06 66° ESE 05:55:21 10° NNE
USA 129 2.8 05:48:42 10° SSE 05:50:32 39° ENE 05:52:14 10° N
ARIANE 5 R/B 4.5 05:49:16 10° NW 05:50:46 11° NW 05:50:50 11° NW
ASTRO F (AKARI) 4.5 05:48:11 10° S 05:51:13 45° W 05:54:22 10° NNW
Meteor 1-23 Rocket 4.2 05:47:11 10° SSW 05:52:43 60° WNW 05:58:23 10° N
ADEOS II 2.0 05:48:59 10° NNE 05:54:16 82° WNW 05:59:32 10° SSW
Meteor PRIRODA 3.6 05:51:32 10° NNE 05:55:18 90° E 05:59:01 10° SSW
Cosmos 1725 Rocket 4.3 05:49:30 10° N 05:55:50 72° E 06:02:04 10° SSE
RESURS DK-1 3.1 05:57:56 22° WSW 05:59:51 34° NW 06:03:40 10° N
ADEOS Rocket 3.4 05:53:10 10° N 06:00:18 61° WNW 06:06:43 10° SSW
CENTAUR R/B 3.1 05:53:02 10° NW 06:00:51 88° SW 06:09:12 10° SSE
Cosmos 2228 3.0 05:57:18 10° NNW 06:01:40 62° W 06:05:59 10° S
SL-16 R/B 2.4 05:57:07 10° NW 06:02:35 49° WSW 06:08:00 10° S
Cosmos 1812 Rocket 4.3 05:59:54 10° N 06:04:18 59° E 06:08:42 10° SSE
Cosmos 1346 Rocket 3.5 06:02:28 16° SW 06:05:01 33° WNW 06:08:41 10° N
Cosmos 2227 Rocket 3.3 06:13:20 14° W 06:17:04 27° NW 06:21:50 10° N
NOSS 2-2 (C) 4.1 06:13:34 10° SSW 06:17:37 59° ESE 06:22:20 10° NE
Okean-O 2.9 06:13:39 10° N 06:17:56 47° WNW 06:22:10 10° SW
Cosmos 2016 Rocket 4.1 06:12:24 10° NNW 06:18:34 54° W 06:24:38 10° SSW
NOSS 2-2 (E) 3.9 06:15:18 10° SSW 06:19:26 69° ESE 06:24:21 10° NE
Cosmos 2058 Rocket 3.9 06:17:45 10° NNW 06:21:26 27° W 06:25:07 10° SSW
Cosmos 2173 Rocket 4.5 06:18:39 10° NNW 06:24:05 35° W 06:29:33 10° SSW
CZ-4B R/B 3.7 06:22:05 10° N 06:26:03 66° WNW 06:29:47 10° SSW
Aureole 2 Rocket 3.2 06:23:05 10° NW 06:26:06 27° WSW 06:28:53 10° SSW
Cosmos 2297 Rocket 3.1 06:21:32 11° WSW 06:26:18 30° NW 06:31:15 10° N
OPS 6432 4.2 06:23:35 10° SW 06:26:56 73° NW 06:30:01 10° NE
NOSS 3-4 (A) 4.5 06:23:13 11° W 06:28:37 32° NW 06:34:30 10° NNE
NOSS 3-4 (C) 4.5 06:23:18 11° W 06:28:42 32° NW 06:34:36 10° NNE
SL-24 R/B 4.1 06:28:05 10° NNE 06:32:34 85° ESE 06:36:29 10° SSW
COSMO-SKYMED 1 2.5 06:31:40 10° S 06:36:01 81° W 06:40:22 10° NNW
Cosmos 2123 Rocket 4.0 06:31:45 10° SSW 06:37:49 60° WNW 06:43:56 10° N
Meteor 2-17 Rocket 4.5 06:34:17 10° NNW 06:40:24 69° W 06:46:29 10° S
Cosmos 1825 Rocket 4.3 06:37:28 10° S 06:41:49 61° E 06:46:08 10° NNE
Meteor 1-31 Rocket 3.3 06:38:24 10° N 06:42:03 39° WNW 06:45:43 10° SW
Lacrosse 5 rocket 3.7 06:43:02 10° NW 06:45:50 16° N 06:48:34 10° NE
Cosmos 1943 3.7 06:40:33 10° NNW 06:46:10 67° ENE 06:51:46 10° SE
